Starlink 36924

operational
NORAD ID: 68054 Int'l Des: 2026-041 Owner: SPXS Country: US Constellation: starlink
NOTLE

Über Starlink 36924

Beschreibung wird geladen...

Live-Position

3D-Globus wird geladen...

Nächste Überflüge

Höhenverlauf

Altitude vs Time

uPlot chart will show altitude changes over time

Zweizeiliger Elementsatz

1 68054C 26041Q 26061.43590278 .00453910 00000+0 60830-3 0 610
2 68054 53.1641 99.7105 0008054 277.7163 111.3973 16.05299188 11
Epoch: 2. März 2026 • Age: 26 hours

Aktueller Status

Höhe 266.0 km
Geschwindigkeit 7.75 km/s
Subsatellitenpunkt 41.83°N, 45.27°W
Startdatum 2. März 2026
Alter N/A
Typ internet

Technische Details

Klassifizierung Payload
Masse 575.00 kg
Trockenmasse 530.00 kg
Gesamtmasse 575.00 kg
Länge 0.30 m
Durchmesser 4.10 m
Spannweite 29.00 m
Form Box + pan
Hersteller SPXS
Bus-Typ Starlink V2MO
Phasenstatus In Orbit
Besitzer/Staat SPXS/US

Große Konstellationen

Loading constellations...